Regional Weather Roundup
Issued by NWS Boston, MA

Home | Current Version | Previous Version | Text Only | Print | Product List | Glossary On
Versions: 1 2 3 4 5 6 7 8 9 10 11 12 13 14 15 16 17 18 19 20 21 22 23 24 25 26 27 28 29 30 31 32 33 34 35 36 37 38 39 40 41 42 43 44 45 46 47 48 49 50
000
ASUS41 KBOX 070110
RWRBOX

REGIONAL WEATHER ROUNDUP
NATIONAL WEATHER SERVICE TAUNTON MA
900 PM EDT FRI MAY 06 2016

NOTE:  "FAIR" INDICATES FEW OR NO CLOUDS BELOW 12,000 FEET WITH NO
SIGNIFICANT WEATHER AND/OR OBSTRUCTIONS TO VISIBILITY.  THE FOLLOWING
OBSERVATION LOCATIONS DO NOT REPORT PRESENT WEATHER...PROVINCETOWN...
SMITHFIELD...BLOCK ISLAND...KEENE...AND OXFORD.

MAZALL-070200-
EASTERN MASSACHUSETTS

CITY           SKY/WX    TMP DP  RH WIND       PRES   REMARKS
BOSTON         CLOUDY    47  43  86 E10       29.94R
BEVERLY        RAIN      46  42  86 E6        29.94R FOG
LAWRENCE       RAIN      48  42  80 SE7       29.96R
BEDFORD        LGT RAIN  47  44  90 E10       29.91S
BLUE HILL        N/A     44  42  93 E9        29.89S
NORWOOD        CLOUDY    48  43  82 E6        29.92R
MARSHFIELD     CLOUDY    48  45  87 E7        29.92S
PLYMOUTH       CLOUDY    47  43  86 E9        29.91R
TAUNTON        CLOUDY    49  44  83 VRB3      29.90R
NEW BEDFORD    LGT RAIN  48  45  89 NE3       29.89R
$$

MAZALL-070200-
CAPE COD AND THE ISLANDS

CITY           SKY/WX    TMP DP  RH WIND       PRES   REMARKS
FALMOUTH       CLOUDY    46  45  93 E8        29.89S FOG
HYANNIS        CLOUDY    47  43  86 E5        29.88S
CHATHAM        CLOUDY    46  43  89 E12       29.91S
PROVINCETOWN   CLOUDY    46  44  93 E7        29.92S
NANTUCKET      CLOUDY    47  44  90 E16G24    29.87S
MARTHAS VNYRD  CLOUDY    47  45  93 E12       29.88R FOG
$$

MAZALL-070200-
CENTRAL AND WESTERN MASSACHUSETTS

CITY           SKY/WX    TMP DP  RH WIND       PRES   REMARKS
WORCESTER      FOG       44  42  93 NE8       29.90R VSB 1/2
FITCHBURG      LGT RAIN  47  44  90 SE5       29.93R FOG
ORANGE         CLOUDY    49  46  90 S6        29.90R
SPRINGFIELD    DRIZZLE   50  48  93 E5        29.89R
WESTFIELD      LGT RAIN  51  49  92 E6        29.89R FOG
NORTH ADAMS    CLOUDY    55  51  86 E8        29.85R
PITTSFIELD     LGT RAIN  51  49  92 E12       29.84R
$$

RIZALL-070200-
RHODE ISLAND

CITY           SKY/WX    TMP DP  RH WIND       PRES   REMARKS
PROVIDENCE     DRIZZLE   48  46  93 NE5       29.92R FOG
NEWPORT        CLOUDY    47  46  97 E6        29.91R FOG
BLOCK ISLAND   LGT RAIN  46  45  96 E14       29.89R FOG
SMITHFIELD     CLOUDY    45  43  93 E3        29.92R
WESTERLY       RAIN      48  44  86 NE13      29.89R FOG
$$

CTZALL-070200-
CONNECTICUT

CITY           SKY/WX    TMP DP  RH WIND       PRES   REMARKS
BRADLEY INTL   LGT RAIN  52  50  93 E6        29.87S
HARTFORD       LGT RAIN  54  50  86 NE8       29.85F
BRIDGEPORT     CLOUDY    50  46  86 E24       29.84R
DANBURY        CLOUDY    49  46  90 E9        29.84S
GROTON         LGT RAIN  48  47  96 E10       29.87S
NEW HAVEN      CLOUDY    49  47  93 E8        29.86R
CHESTER        CLOUDY    48  48 100 VRB7      29.86R
MERIDEN        MOCLDY    52  47  83 VRB3      29.85R
WILLIMANTIC    LGT RAIN  52  47  83 NE12      29.88S
OXFORD         LGT RAIN  50  46  87 E6        29.85R
$$

MEZ002-015-021-024-NHZ003-005-008-011-012-014-VTZ005-008-070200-
NORTHERN NEW ENGLAND

CITY           SKY/WX    TMP DP  RH WIND       PRES   REMARKS
PORTLAND ME    MOCLDY    49  42  77 S3        29.95R
BANGOR ME      PTCLDY    58  47  66 S10       29.94R
CONCORD NH     CLOUDY    53  43  68 SE6       29.91R
MANCHESTER NH  CLOUDY    50  43  77 SE10      29.92R
NASHUA NH      LGT RAIN  50  43  77 SE6       29.94R
PORTSMOUTH NH  CLOUDY    47  42  80 SE8       29.94R
JAFFREY NH     LGT RAIN  49  44  83 VRB5      29.90R
KEENE NH       CLOUDY    54  48  82 S8        29.89R
BURLINGTON VT  CLOUDY    62  43  49 S5        29.81R
MT. WASHINGTON FOG       39  39 100 SE24        N/A  VSB 1/8 WCI  28
$$

NYZ052-076-070200-
EASTERN NEW YORK

CITY           SKY/WX    TMP DP  RH WIND       PRES   REMARKS
ALBANY         LGT RAIN  56  54  93 CALM      29.84R FOG
NEW YORK CITY  CLOUDY    51  50  96 E14       29.80R
$$

ANZALL-070200-
MARINE OBSERVATIONS

STATION/POSITION TIME  TEMP    WIND        PRES    VSBY  WAVE
                       AIR SEA DIR/SP/G                  HT/PER
                 (UTC) (F)     (DEG/KT/KT) (MB)    (MI)  (FT/S)
BOSTON BUOY      0050   46 47   90/ 10/ 12 1012.7R         5/ 8
BUZZARDS BAY     0000   47      70/ 16/ 17 1012.0R
NANTUCKET SOUND  0050   46 47   80/ 16/ 19 1011.6F         2/ 4
MASS BAY-STELLWA 0004   45 47                N/A    1 7/8  5/ 8
ISLE OF SHOALS   0100   46     150/  6/  6 1014.2R
S OF BLOCK IS    NOT AVBL
$$

......................KEY.........................
  SKY/WX - SKY CONDITION/PRESENT WEATHER
  TMP    - TEMPERATURE IN FAHRENHEIT
  DWPT   - DEWPOINT IN FAHRENHEIT
  RH     - RELATIVE HUMIDITY IN PERCENT
  WIND   - DIRECTION AND SPEED IN MPH
  PRES   - MEAN SEA LEVEL PRESSURE IN INCHES OF HG
  WCI    - WIND CHILL INDEX
  VSB    - VISIBILITY IN MILES
  HX     - HEAT INDEX
  TC     - TEMPERATURE IN CELSIUS
  VRB    - VARIABLE WIND DIRECTION
  N/A    - NOT AVAILABLE



USA.gov is the U.S. government's official web portal to all federal, state and local government web resources and services.